FW6002 Weather Reports


time (UTC)temp
C
wind
direction
speed
KPH
gust
KPH
rain 1hr
cm
rain 24hr
cm
rain mn
cm
humidity
%
barometer
mb
20260508213102 22 169 0.0 8.0 0.00 0.15 0.15 79 1009.0
20260508212555 23 73 0.0 6.4 0.00 0.15 0.15 78 1009.0
20260508212055 23 196 0.0 6.4 0.00 0.15 0.15 77 1009.0
20260508211558 23 184 1.6 6.4 0.00 0.15 0.15 78 1009.1
20260508211057 22 214 1.6 8.0 0.00 0.15 0.15 79 1009.3
20260508210555 22 170 1.6 8.0 0.00 0.15 0.15 79 1009.5
20260508210057 22 67 3.2 8.0 0.00 0.15 0.15 78 1009.5
20260508205554 22 73 0.0 8.0 0.00 0.15 0.15 80 1009.6
20260508205056 22 0 1.6 8.0 0.00 0.15 0.15 79 1009.8
20260508204600 21 47 1.6 6.4 0.00 0.15 0.15 79 1009.7
20260508204055 22 110 0.0 6.4 0.00 0.15 0.15 79 1009.7
20260508203557 22 0 0.0 6.4 0.00 0.15 0.15 81 1009.9
20260508203057 21 182 1.6 11.3 0.00 0.15 0.15 80 1010.0
20260508202556 21 96 1.6 11.3 0.00 0.15 0.15 81 1010.0
20260508202055 21 39 1.6 9.7 0.00 0.15 0.15 80 1010.0
20260508201610 21 64 1.6 9.7 0.00 0.15 0.15 84 1009.5
20260508201055 20 84 1.6 11.3 0.03 0.15 0.15 83 1009.7
20260508200555 20 190 3.2 11.3 0.15 0.15 0.15 83 1009.6
20260508200106 20 134 3.2 14.5 0.15 0.15 0.15 86 1009.5
20260508195555 20 164 1.6 14.5 0.15 0.15 0.15 88 1009.7
20260508195056 19 111 1.6 8.0 0.15 0.15 0.15 89 1009.9
20260508194600 18 0 0.0 3.2 0.15 0.15 0.15 88 1010.4
20260508194057 18 0 1.6 3.2 0.15 0.15 0.15 89 1010.6
20260508193555 18 0 0.0 1.6 0.15 0.15 0.15 89 1010.8
20260508193106 18 0 0.0 1.6 0.15 0.15 0.15 89 1011.0
20260508192555 18 0 0.0 3.2 0.15 0.15 0.15 88 1011.5
20260508192056 18 0 0.0 4.8 0.15 0.15 0.15 87 1011.6
20260508191555 19 0 0.0 8.0 0.15 0.15 0.15 85 1011.3
20260508191055 20 0 0.0 8.0 0.13 0.13 0.13 82 1011.6
20260508190556 21 76 1.6 8.0 0.00 0.00 0.00 76 1011.8
20260508190100 21 219 0.0 6.4 0.00 0.00 0.00 75 1011.8
20260508185555 21 330 1.6 6.4 0.00 0.00 0.00 74 1011.6
20260508185055 22 171 1.6 11.3 0.00 0.00 0.00 74 1011.4
20260508184609 22 233 3.2 11.3 0.00 0.00 0.00 75 1011.4
20260508184055 22 105 1.6 11.3 0.00 0.00 0.00 74 1011.4
20260508183554 22 49 1.6 6.4 0.00 0.00 0.00 73 1011.4
20260508183105 22 75 0.0 8.0 0.00 0.00 0.00 74 1011.5
20260508182553 22 81 1.6 8.0 0.00 0.00 0.00 73 1011.7
20260508182053 22 57 1.6 8.0 0.00 0.00 0.00 74 1012.0
20260508181559 21 85 1.6 6.4 0.00 0.00 0.00 74 1012.1
20260508181055 21 24 1.6 6.4 0.00 0.00 0.00 73 1012.1
20260508180554 21 55 1.6 6.4 0.00 0.00 0.00 73 1012.2
20260508180059 21 119 1.6 8.0 0.00 0.00 0.00 75 1012.2
20260508175555 21 189 1.6 8.0 0.00 0.00 0.00 74 1012.3
20260508175054 21 96 3.2 9.7 0.00 0.00 0.00 73 1012.8
20260508174605 21 51 1.6 9.7 0.00 0.00 0.00 72 1012.7
20260508174053 21 223 3.2 9.7 0.00 0.00 0.00 70 1012.8
20260508173555 22 49 3.2 9.7 0.00 0.00 0.00 69 1012.7
20260508173054 22 170 1.6 8.0 0.00 0.00 0.00 71 1012.6
20260508172555 22 207 1.6 6.4 0.00 0.00 0.00 70 1012.3
20260508172054 22 180 0.0 8.0 0.00 0.00 0.00 70 1012.3
20260508171558 23 134 1.6 8.0 0.00 0.00 0.00 67 1012.2
20260508171056 22 87 0.0 6.4 0.00 0.00 0.00 69 1012.2
20260508170556 22 0 1.6 8.0 0.00 0.00 0.00 70 1012.3
20260508170056 22 0 1.6 8.0 0.00 0.00 0.00 71 1012.2
20260508165553 22 0 0.0 3.2 0.00 0.00 0.00 76 1012.4
20260508165055 21 130 0.0 6.4 0.00 0.00 0.00 75 1012.7
20260508164558 21 180 0.0 6.4 0.00 0.00 0.00 74 1012.7
20260508164055 21 68 1.6 6.4 0.00 0.00 0.00 73 1013.2
20260508163554 21 0 1.6 6.4 0.00 0.00 0.00 74 1013.2
20260508163114 21 112 0.0 4.8 0.00 0.00 0.00 75 1013.2
20260508162554 20 243 1.6 4.8 0.00 0.00 0.00 73 1013.3
20260508162055 20 109 0.0 4.8 0.00 0.00 0.00 77 1013.3
20260508161556 20 130 0.0 4.8 0.00 0.00 0.00 75 1013.4
20260508161054 19 167 0.0 6.4 0.00 0.00 0.00 77 1013.5
20260508160554 19 26 0.0 6.4 0.00 0.00 0.00 76 1013.6
20260508160055 19 0 0.0 3.2 0.00 0.00 0.00 76 1013.5
20260508155552 19 103 0.0 3.2 0.00 0.00 0.00 76 1013.6
20260508155059 18 0 0.0 4.8 0.00 0.00 0.00 76 1013.6
20260508154558 18 0 0.0 4.8 0.00 0.00 0.00 77 1013.6
20260508154054 18 75 0.0 4.8 0.00 0.00 0.00 76 1013.8
20260508153554 18 0 0.0 8.0 0.00 0.00 0.00 76 1013.7
20260508153058 18 0 0.0 8.0 0.00 0.00 0.00 77 1013.9
20260508152555 18 117 1.6 8.0 0.00 0.00 0.00 78 1013.8
20260508152055 18 150 0.0 3.2 0.00 0.00 0.00 80 1014.0
20260508151554 18 0 0.0 3.2 0.00 0.00 0.00 80 1013.8
20260508151055 18 131 0.0 3.2 0.00 0.00 0.00 79 1014.0
20260508150600 17 151 0.0 3.2 0.00 0.00 0.00 79 1014.2
20260508150057 17 0 0.0 3.2 0.00 0.00 0.00 80 1014.3
20260508145555 17 182 0.0 3.2 0.00 0.00 0.00 80 1014.4
20260508145058 17 0 0.0 4.8 0.00 0.00 0.00 81 1014.3
20260508144555 17 0 0.0 4.8 0.00 0.00 0.00 80 1014.4
20260508144055 17 0 0.0 3.2 0.00 0.00 0.00 80 1014.5
20260508143555 17 0 0.0 3.2 0.00 0.00 0.00 80 1014.4
20260508143058 17 181 0.0 3.2 0.00 0.00 0.00 80 1014.4
20260508142555 17 0 0.0 3.2 0.00 0.00 0.00 80 1014.4
20260508142100 17 0 0.0 3.2 0.00 0.00 0.00 80 1014.3
20260508141603 17 0 0.0 4.8 0.00 0.00 0.00 80 1014.3
20260508141056 17 0 0.0 4.8 0.00 0.00 0.00 81 1014.5
20260508140555 17 63 0.0 4.8 0.00 0.00 0.00 81 1014.4
20260508140054 17 0 0.0 3.2 0.00 0.00 0.00 82 1014.4
20260508135556 17 0 0.0 1.6 0.00 0.00 0.00 84 1014.3
20260508135055 17 0 0.0 1.6 0.00 0.00 0.00 87 1014.1
20260508134600 16 0 0.0 1.6 0.00 0.00 0.00 87 1013.8
20260508134055 16 0 0.0 1.6 0.00 0.00 0.00 88 1013.8
20260508133557 16 0 0.0 3.2 0.00 0.00 0.00 88 1014.1
20260508133106 16 0 0.0 3.2 0.00 0.00 0.00 89 1014.1
20260508132555 16 0 0.0 0.0 0.00 0.00 0.00 90 1014.2
20260508132055 15 0 0.0 0.0 0.00 0.00 0.00 91 1014.3
20260508131558 15 0 0.0 0.0 0.00 0.00 0.00 91 1014.3
20260508131059 15 0 0.0 0.0 0.00 0.00 0.00 92 1014.3
20260508130555 15 0 0.0 0.0 0.00 0.00 0.00 91 1014.5
20260508130107 15 0 0.0 0.0 0.00 0.00 0.00 92 1014.4
20260508125556 15 0 0.0 0.0 0.00 0.00 0.00 92 1014.4
20260508125055 14 0 0.0 0.0 0.00 0.00 0.00 92 1014.5
20260508124557 14 0 0.0 0.0 0.00 0.00 0.00 92 1014.5
20260508124055 13 0 0.0 0.0 0.00 0.00 0.00 92 1014.4
20260508123557 13 0 0.0 0.0 0.00 0.00 0.00 92 1014.3
20260508123056 13 0 0.0 0.0 0.00 0.00 0.00 92 1014.3
20260508122555 13 0 0.0 0.0 0.00 0.00 0.00 91 1014.4
20260508122055 13 0 0.0 0.0 0.00 0.00 0.00 91 1014.5
20260508121555 13 0 0.0 0.0 0.00 0.00 0.00 91 1014.5
20260508121056 13 0 0.0 1.6 0.00 0.00 0.00 91 1014.5
20260508120555 13 0 0.0 1.6 0.00 0.00 0.00 91 1014.4
20260508120056 13 0 0.0 0.0 0.00 0.00 0.00 91 1014.3
20260508115556 13 0 0.0 0.0 0.00 0.00 0.00 91 1014.4
20260508115055 13 0 0.0 0.0 0.00 0.00 0.00 91 1014.5
20260508114556 13 0 0.0 0.0 0.00 0.00 0.00 91 1014.3
20260508114055 13 0 0.0 0.0 0.00 0.00 0.00 91 1014.4
20260508113556 13 0 0.0 0.0 0.00 0.00 0.00 91 1014.6
20260508113107 13 0 0.0 0.0 0.00 0.00 0.00 91 1014.8
20260508112555 13 0 0.0 0.0 0.00 0.00 0.00 91 1014.6
20260508112055 12 0 0.0 0.0 0.00 0.00 0.00 91 1014.5
20260508111553 12 0 0.0 0.0 0.00 0.00 0.00 91 1014.7
20260508111055 12 0 0.0 0.0 0.00 0.00 0.00 91 1014.7
20260508110555 12 0 0.0 0.0 0.00 0.00 0.00 91 1014.7
20260508110118 12 0 0.0 0.0 0.00 0.00 0.00 91 1014.6
20260508105555 12 0 0.0 1.6 0.00 0.00 0.00 91 1014.3
20260508105055 12 0 0.0 1.6 0.00 0.00 0.00 91 1014.6
20260508104603 12 199 0.0 1.6 0.00 0.00 0.00 91 1014.6
20260508104056 12 0 0.0 1.6 0.00 0.00 0.00 91 1014.5
20260508103557 12 0 0.0 0.0 0.00 0.00 0.00 91 1014.4
20260508103057 13 0 0.0 0.0 0.00 0.00 0.00 91 1014.7
20260508102555 13 0 0.0 0.0 0.00 0.00 0.00 91 1014.8
20260508102056 13 0 0.0 0.0 0.00 0.00 0.00 91 1014.6
20260508101557 13 0 0.0 0.0 0.00 0.00 0.00 91 1014.6
20260508101057 13 0 0.0 0.0 0.00 0.00 0.00 91 1014.9
20260508100556 13 0 0.0 0.0 0.00 0.00 0.00 91 1014.8
20260508100055 13 0 0.0 0.0 0.00 0.00 0.00 91 1014.9
20260508095600 13 0 0.0 0.0 0.00 0.00 0.00 91 1014.8
20260508095056 13 0 0.0 0.0 0.00 0.00 0.00 91 1014.5
20260508094558 13 0 0.0 0.0 0.00 0.00 0.00 91 1014.5
20260508094055 13 0 0.0 0.0 0.00 0.00 0.00 91 1014.7
20260508093555 13 0 0.0 0.0 0.00 0.00 0.00 91 1014.6
20260508093102 13 0 0.0 0.0 0.00 0.00 0.00 91 1014.3
20260508092559 13 0 0.0 0.0 0.00 0.00 0.00 91 1014.4
20260508092054 13 0 0.0 0.0 0.00 0.00 0.00 91 1014.3
20260508091556 13 0 0.0 0.0 0.00 0.00 0.00 91 1014.0
20260508091056 13 0 0.0 0.0 0.00 0.00 0.00 90 1014.0
20260508090556 13 0 0.0 0.0 0.00 0.00 0.00 90 1013.9
20260508090109 13 0 0.0 0.0 0.00 0.00 0.00 91 1014.0
20260508085555 13 0 0.0 0.0 0.00 0.00 0.00 90 1013.9
20260508085055 13 0 0.0 0.0 0.00 0.00 0.00 90 1014.1
20260508084555 14 0 0.0 0.0 0.00 0.00 0.00 91 1013.9
20260508084059 14 0 0.0 3.2 0.00 0.00 0.00 91 1014.3
20260508083555 14 0 0.0 3.2 0.00 0.00 0.00 91 1013.9
20260508083058 14 0 0.0 4.8 0.00 0.00 0.00 91 1014.0
20260508082555 14 0 0.0 4.8 0.00 0.00 0.00 91 1014.0
20260508082055 14 210 0.0 1.6 0.00 0.00 0.00 91 1013.9
20260508081605 14 0 0.0 0.0 0.00 0.00 0.00 90 1014.4
20260508081054 14 0 0.0 0.0 0.00 0.00 0.00 90 1014.6
20260508080556 14 0 0.0 0.0 0.00 0.00 0.00 90 1014.7
20260508080054 14 0 0.0 0.0 0.00 0.00 0.00 90 1014.6
20260508075556 14 0 0.0 0.0 0.00 0.00 0.00 90 1014.5
20260508075054 14 0 0.0 0.0 0.00 0.00 0.00 90 1014.8
20260508074555 14 0 0.0 0.0 0.00 0.00 0.00 90 1014.8
20260508074057 14 0 0.0 0.0 0.00 0.00 0.00 90 1014.9
20260508073557 14 0 0.0 0.0 0.00 0.00 0.00 90 1014.9
20260508073058 14 0 0.0 0.0 0.00 0.00 0.00 90 1015.2
20260508072556 14 0 0.0 0.0 0.00 0.00 0.00 90 1015.3
20260508072057 14 0 0.0 0.0 0.00 0.00 0.00 90 1015.4
20260508071554 14 0 0.0 0.0 0.00 0.00 0.00 90 1015.2
20260508071057 13 0 0.0 0.0 0.00 0.00 0.00 90 1015.3
20260508070555 13 0 0.0 0.0 0.00 0.00 0.00 90 1015.2
20260508070056 13 0 0.0 0.0 0.00 0.00 0.00 90 1015.4
20260508065558 13 0 0.0 0.0 0.00 0.00 0.00 90 1015.4
20260508065055 13 0 0.0 0.0 0.00 0.00 0.00 90 1015.3
20260508064556 13 0 0.0 0.0 0.00 0.00 0.00 89 1015.3
20260508064055 13 0 0.0 0.0 0.00 0.00 0.00 89 1015.3
20260508063554 13 0 0.0 0.0 0.00 0.00 0.00 89 1015.3
20260508063055 13 0 0.0 0.0 0.00 0.00 0.00 89 1015.1
20260508062555 13 0 0.0 0.0 0.00 0.00 0.00 89 1015.2
20260508062054 13 0 0.0 0.0 0.00 0.00 0.00 89 1015.5
20260508061609 13 0 0.0 0.0 0.00 0.00 0.00 89 1015.5
20260508061056 13 0 0.0 0.0 0.00 0.00 0.00 89 1015.4
20260508060556 14 0 0.0 0.0 0.00 0.00 0.00 89 1015.4
20260508055555 14 0 0.0 0.0 0.00 0.00 0.00 89 1015.4
20260508055055 14 0 0.0 0.0 0.00 0.00 0.00 89 1015.4
20260508054640 14 0 0.0 0.0 0.00 0.00 0.00 88 1015.4
20260508054055 14 0 0.0 0.0 0.00 0.00 0.00 88 1015.4
20260508053555 14 0 0.0 0.0 0.00 0.00 0.00 88 1015.5
20260508053103 14 0 0.0 0.0 0.00 0.00 0.00 88 1015.5
20260508052555 13 0 0.0 0.0 0.00 0.00 0.00 88 1015.5
20260508052054 14 0 0.0 0.0 0.00 0.00 0.00 88 1015.5
20260508051609 14 0 0.0 0.0 0.00 0.00 0.00 87 1015.5
20260508051056 14 0 0.0 0.0 0.00 0.00 0.00 87 1015.7
20260508050556 14 0 0.0 0.0 0.00 0.00 0.00 87 1015.6
20260508050057 14 0 0.0 0.0 0.00 0.00 0.00 86 1015.8
20260508045556 15 0 0.0 0.0 0.00 0.00 0.00 86 1015.8
20260508045054 15 0 0.0 0.0 0.00 0.00 0.00 87 1015.9
20260508044606 15 0 0.0 0.0 0.00 0.00 0.00 87 1015.8
20260508044056 15 0 0.0 0.0 0.00 0.00 0.00 87 1015.8
20260508043555 15 0 0.0 0.0 0.00 0.00 0.00 86 1015.8
20260508043103 15 0 0.0 0.0 0.00 0.00 0.00 86 1016.0
20260508042555 15 0 0.0 0.0 0.00 0.00 0.00 86 1015.7
20260508042057 15 0 0.0 0.0 0.00 0.00 0.00 86 1015.8
20260508041559 15 0 0.0 0.0 0.00 0.00 0.00 85 1015.9
20260508041055 15 0 0.0 0.0 0.00 0.00 0.00 85 1015.8
20260508040555 15 0 0.0 0.0 0.00 0.00 0.00 85 1015.6
20260508040101 15 0 0.0 0.0 0.00 0.00 0.00 85 1015.9
20260508035555 15 0 0.0 0.0 0.00 0.00 0.00 85 1016.0
20260508035055 15 0 0.0 0.0 0.00 0.00 0.00 85 1015.8
20260508034606 15 0 0.0 0.0 0.00 0.00 0.00 84 1015.7
20260508034052 15 0 0.0 0.0 0.00 0.00 0.00 84 1015.8
20260508033552 15 0 0.0 0.0 0.00 0.00 0.00 84 1015.6
20260508033059 15 0 0.0 0.0 0.00 0.00 0.00 84 1015.6
20260508032558 15 0 0.0 0.0 0.00 0.00 0.00 84 1015.6
20260508032056 15 0 0.0 0.0 0.00 0.00 0.00 84 1015.3
20260508031610 15 0 0.0 0.0 0.00 0.00 0.00 84 1015.4
20260508031055 15 0 0.0 0.0 0.00 0.00 0.00 83 1015.3
20260508030555 15 0 0.0 0.0 0.00 0.00 0.00 83 1015.3
20260508030115 15 0 0.0 0.0 0.00 0.00 0.00 83 1015.3
20260508025555 15 0 0.0 0.0 0.00 0.00 0.00 83 1015.1
20260508025055 15 0 0.0 0.0 0.00 0.00 0.00 82 1014.9
20260508024607 16 0 0.0 0.0 0.00 0.00 0.00 82 1014.8
20260508024055 16 0 0.0 0.0 0.00 0.00 0.00 82 1014.8
20260508023558 16 0 0.0 0.0 0.00 0.00 0.00 82 1014.7
20260508023058 16 0 0.0 0.0 0.00 0.00 0.00 82 1014.9
20260508022554 16 0 0.0 0.0 0.00 0.00 0.00 82 1014.7
20260508022055 16 0 0.0 0.0 0.00 0.00 0.00 82 1014.8
20260508021618 16 0 0.0 0.0 0.00 0.00 0.00 81 1014.7
20260508021056 16 0 0.0 0.0 0.00 0.00 0.00 81 1014.6
20260508020554 16 0 0.0 0.0 0.00 0.00 0.00 81 1014.6
20260508020054 16 0 0.0 0.0 0.00 0.00 0.00 81 1014.7
20260508015555 16 0 0.0 0.0 0.00 0.00 0.00 80 1014.4
20260508015055 16 0 0.0 0.0 0.00 0.00 0.00 80 1014.6
20260508014603 16 0 0.0 0.0 0.00 0.00 0.00 80 1014.6
20260508014055 16 0 0.0 0.0 0.00 0.00 0.00 79 1014.7
20260508013555 16 0 0.0 0.0 0.00 0.00 0.00 79 1014.7
20260508013106 16 0 0.0 0.0 0.00 0.00 0.00 80 1014.5
20260508012555 17 0 0.0 0.0 0.00 0.00 0.00 79 1014.7
20260508012057 17 0 0.0 0.0 0.00 0.00 0.00 79 1014.7
20260508011603 17 0 0.0 0.0 0.00 0.00 0.00 78 1015.0
20260508011056 17 0 0.0 0.0 0.00 0.00 0.00 78 1015.1
20260508010554 17 0 0.0 0.0 0.00 0.00 0.00 78 1015.0
20260508010057 17 0 0.0 0.0 0.00 0.00 0.00 77 1014.8
20260508005557 17 0 0.0 0.0 0.00 0.00 0.00 77 1014.9
20260508005100 17 0 0.0 0.0 0.00 0.00 0.00 76 1014.8
20260508004559 17 0 0.0 0.0 0.00 0.00 0.00 76 1014.9
20260508004055 17 0 0.0 0.0 0.00 0.00 0.00 75 1014.7
20260508003555 18 0 0.0 0.0 0.00 0.00 0.00 73 1015.0
20260508003104 18 0 0.0 1.6 0.00 0.00 0.00 70 1015.0
20260508002555 18 0 0.0 1.6 0.00 0.00 0.00 70 1015.0
20260508002055 18 0 0.0 1.6 0.00 0.00 0.00 68 1014.8
20260508001601 18 0 0.0 0.0 0.00 0.00 0.00 69 1014.9
20260508001055 19 0 0.0 0.0 0.00 0.00 0.00 69 1014.9
20260508000555 18 0 0.0 0.0 0.00 0.00 0.00 69 1015.0
20260508000057 18 0 0.0 0.0 0.00 0.00 0.00 70 1014.9
20260507235554 18 0 0.0 0.0 0.00 0.00 0.00 68 1015.0
20260507235054 18 0 0.0 1.6 0.00 0.00 0.00 67 1015.1
20260507234557 19 0 0.0 3.2 0.00 0.00 0.00 67 1015.2
20260507234056 19 0 0.0 3.2 0.00 0.00 0.00 66 1015.4
20260507233555 19 0 0.0 3.2 0.00 0.00 0.00 66 1015.5
20260507233056 19 0 0.0 1.6 0.00 0.00 0.00 65 1015.5
20260507232552 19 220 0.0 3.2 0.00 0.00 0.00 65 1015.5
20260507232054 19 0 0.0 3.2 0.00 0.00 0.00 65 1015.5
20260507231559 19 0 0.0 3.2 0.00 0.00 0.00 64 1015.4
20260507231055 19 0 0.0 4.8 0.00 0.00 0.00 65 1015.3
20260507230555 19 0 0.0 4.8 0.00 0.00 0.00 65 1015.4
20260507230057 20 0 0.0 4.8 0.00 0.00 0.00 66 1015.4
20260507225556 20 0 0.0 3.2 0.00 0.05 0.00 64 1015.6
20260507225055 20 135 0.0 3.2 0.00 0.05 0.00 64 1015.3
20260507224601 20 0 0.0 3.2 0.00 0.05 0.00 65 1015.4
20260507224054 20 0 0.0 3.2 0.00 0.05 0.00 65 1015.5
20260507223558 20 0 0.0 1.6 0.00 0.05 0.00 63 1015.4
20260507223052 20 0 0.0 4.8 0.00 0.05 0.00 65 1015.4
20260507222557 20 0 0.0 4.8 0.00 0.05 0.00 64 1015.3
20260507222054 20 0 0.0 3.2 0.00 0.05 0.00 66 1015.2
20260507221556 20 32 0.0 3.2 0.00 0.05 0.00 64 1015.6
20260507221055 20 0 0.0 4.8 0.00 0.05 0.00 64 1015.8
20260507220554 20 0 0.0 4.8 0.00 0.05 0.00 66 1015.8
20260507220057 20 0 0.0 4.8 0.00 0.05 0.00 65 1015.9
20260507215557 20 88 0.0 4.8 0.00 0.05 0.00 64 1016.0
20260507215054 20 0 0.0 4.8 0.00 0.05 0.00 63 1015.8
20260507214559 20 27 1.6 4.8 0.00 0.05 0.00 63 1016.0
20260507214054 20 59 0.0 3.2 0.00 0.05 0.00 63 1015.9
20260507213554 20 175 0.0 3.2 0.00 0.05 0.00 63 1015.8